Regional Weather Roundup
Issued by NWS

Home | Current Version | Previous Version | Graphics & Text | Print | Product List | Glossary On
Versions: 1 2 3 4 5 6 7 8 9 10 11 12 13 14 15 16 17 18 19 20 21 22 23 24 25 26 27 28 29 30 31 32 33 34 35 36 37 38 39 40 41 42 43 44 45 46 47 48 49 50
000
ASUS43 KMPX 172201
RWRMN
WEATHER ROUNDUP FOR MINNESOTA
NATIONAL WEATHER SERVICE TWIN CITIES/CHANHASSEN MN
400 PM CST WED DEC 17 2014


NOTE: "FAIR" INDICATES FEW OR NO CLOUDS BELOW 12,000 FEET WITH NO
SIGNIFICANT WEATHER AND/OR OBSTRUCTIONS TO VISIBILITY. N/A MEANS
CURRENT SKY AND/OR WEATHER CONDITIONS ARE NOT AVAILABLE.

MNZ060>063-068>070-172300-
   Twin Cities Metro

CITY           SKY/WX    TMP DP  RH WIND       PRES   REMARKS
TWIN CITIES    MOCLDY    19  10  68 NE6       30.31R WCI  11
ST PAUL        CLOUDY    18  10  71 NE7       30.33R WCI   9
CRYSTAL        MOCLDY    19  10  68 N5        30.30R WCI  12
LAKEVILLE      PTCLDY    18  10  73 CALM      30.29R
EDEN PRAIRIE   PTCLDY    20   9  62 N6        30.29R WCI  12
SOUTH ST PAUL  CLOUDY    19  11  69 NE5       30.31R WCI  13
LAKE ELMO      CLOUDY    19  12  73 NE5       30.31R WCI  13
$$
MNZ001>005-007-008-013>017-022>024-027-028-172300-
   Northwest Minnesota

CITY           SKY/WX    TMP DP  RH WIND       PRES   REMARKS
BEMIDJI        CLEAR     20  12  73 N3        30.28S
HALLOCK        CLEAR     16  10  79 CALM      30.33F
ROSEAU         CLOUDY    16  10  79 CALM      30.32F
WARROAD        PTCLDY    10   7  85 CALM      30.33S
THIEF RVR FALL PTCLDY    18  12  79 CALM      30.31S
CROOKSTON      CLEAR     18  12  79 CALM      30.34S
FOSSTON        PTCLDY    18  12  79 CALM      30.29F
DETROIT LAKES  CLEAR     16  12  86 N3        30.28S
MOORHEAD       CLEAR     18  16  93 NE6       30.32S WCI   9
PARK RAPIDS    CLEAR     22  12  65 NE3       30.25F
MAHNOMEN       FAIR      15  10  83 NE6       30.29S WCI   6
$$
MNZ006-009>011-018-025>026-172300-
   North Central Minnesota

CITY           SKY/WX    TMP DP  RH WIND       PRES   REMARKS
BAUDETTE       CLEAR     15   9  76 N5        30.31R WCI   8
FLAG ISLAND    CLEAR     16   9  73 CALM      30.32S
INTL FALLS     CLEAR     19   4  51 CALM      30.31R
WASKISH        CLEAR     18  12  79 CALM      30.31R
BIG FORK       CLEAR     21  10  63 CALM      30.29R
LONGVILLE      CLEAR     18  10  73 NW3       30.28S
GRAND RAPIDS   CLEAR     19  10  68 N6        30.27R WCI  11
CRANE LAKE     CLEAR     18   7  62 CALM      30.32R
ORR            CLEAR     19   7  58 CALM      30.26R
COOK           CLEAR     19  12  73 CALM      30.28R
WALKER         FAIR      19  10  68 N5        30.27S WCI  12
$$
MNZ012-019>021-037-172300-
   Northeast Minnesota

CITY           SKY/WX    TMP DP  RH WIND       PRES   REMARKS
DULUTH         CLOUDY    20  12  71 N6        30.25R WCI  12
ELY            PTCLDY    16  12  86 CALM      30.27R
HIBBING        CLEAR     20  10  65 N6        30.26R WCI  12
EVELETH        PTCLDY    21  12  68 N3        30.27R
DULUTH HARBOR  PTCLDY    21  14  73 CALM      30.32R
SILVER BAY     CLOUDY    25  16  68 CALM      30.24S
GRAND MARAIS     N/A     20   9  62 N9G17     30.28R WCI   9
G MARAIS ARPRT CLOUDY    10   3  72 N12       30.20R WCI  -4
$$
MNZ029>031-032-039>041-046>048-054>057-064-172300-
   West Central Minnesota

CITY           SKY/WX    TMP DP  RH WIND       PRES   REMARKS
FERGUS FALLS   CLEAR     16   9  73 N5        30.32R WCI   9
WHEATON        CLEAR     12   7  79 NW3       30.33F
MORRIS         CLEAR     18  10  73 NW6       30.27F WCI   9
ALEXANDRIA     CLEAR     17  10  74 NW6       30.26S WCI   9
ELBOW LAKE     FAIR      15  10  81 N5        30.28S WCI   7
WADENA         CLEAR     18  10  73 NW5       30.26S WCI  11
GLENWOOD       CLEAR     18  12  79 NW3       30.27R
APPLETON       CLEAR     18  12  79 CALM      30.30F
BENSON         CLEAR     18  10  73 N3        30.29S
ORTONVILLE     CLEAR     16   9  73 N5        30.30S WCI   9
MADISON        CLEAR     19  14  79 CALM      30.30F
WILLMAR        FAIR      19  10  68 NW5       30.28F WCI  13
$$
MNZ033>034-036-042>043-049>051-058-059-172300-
   Central Minnesota

CITY           SKY/WX    TMP DP  RH WIND       PRES   REMARKS
ST CLOUD       PTCLDY    18   9  68 N6        30.29R WCI  10
SAUK CENTRE    FAIR      17  10  75 CALM      30.28R
PAYNESVILLE    CLEAR     14   9  80 N5        30.29R WCI   7
AITKIN         CLEAR     21  12  68 CALM      30.27R
PINE RIVER     CLEAR     18  10  73 N6        30.30S WCI   9
BRAINERD       CLEAR     18   9  68 N7        30.28S WCI   9
STAPLES        PTCLDY    18  10  73 N3        30.27S
LONG PRAIRIE   FAIR      16  10  79 NW7       30.27S WCI   6
LITTLE FALLS   PTCLDY    18  10  73 CALM      30.29S
LITCHFIELD     CLEAR     18  14  86 N3        30.29R
BUFFALO        CLOUDY    18  11  76 N5        30.31R WCI  11
MAPLE LAKE     CLOUDY    18  13  80 N5        30.30R WCI  11
$$
MNZ037-044-045-052-053-172300-
   East Central Minnesota

CITY           SKY/WX    TMP DP  RH WIND       PRES   REMARKS
PRINCETON      PTCLDY    18  10  73 CALM      30.29S
MORA           CLOUDY    18   9  68 N3        30.31R
CAMBRIDGE      PTCLDY    19   9  63 N3        30.28S
RUSH CITY      CLOUDY    18  10  73 N3        30.30S
MOOSE LAKE     FLURRIES  19  12  73 N6        30.28R WCI  11
HINCKLEY       CLOUDY    19  12  73 CALM      30.30R
CLOQUET        FLURRIES  18  12  79 CALM      30.27R
MCGREGOR       PTCLDY    19  14  79 CALM      30.29R
$$
MNZ071>073-080-081-089-090-097-098-172300-
   Southwest Minnesota

CITY           SKY/WX    TMP DP  RH WIND       PRES   REMARKS
MONTEVIDEO     CLEAR     18  14  86 N3        30.30F
GRANITE FALLS  CLEAR     15  11  85 W7        30.31F WCI   5
CANBY          CLEAR     16  12  83 NW3       30.30S
MARSHALL       CLEAR     12   9  85 NW3       30.29S
REDWOOD FALLS  CLEAR     18  12  77 NW7       30.29S WCI   9
OLIVIA         CLEAR     21  14  73 NW8       30.28S WCI  12
PIPESTONE      PTCLDY    16  14  93 CALM      30.23F
WINDOM         CLEAR     16  12  86 NW5       30.27R WCI   9
WORTHINGTON    CLEAR     19  12  73 N5        30.25S WCI  13
JACKSON        PTCLDY    21  14  73 NW5       30.26R WCI  15
TRACY          CLEAR     14  11  87 CALM      30.28S
SLAYTON        CLEAR     16  13  90 CALM      30.26S
$$
MNZ065>067-074>077-082>085-091>093-172300-
   South Central Minnesota

CITY           SKY/WX    TMP DP  RH WIND       PRES   REMARKS
MANKATO        CLEAR     19  10  68 N8        30.28S WCI   9
NEW ULM        CLEAR     18  12  79 NW5       30.29R WCI  11
ST JAMES       CLEAR     19  14  79 NW6       30.30R WCI  11
FAIRMONT       PTCLDY    19  12  73 N6        30.27S WCI  11
GLENCOE        CLEAR     20  15  79 N6        30.28S WCI  12
FARIBAULT      CLEAR     19  12  73 N5        30.28S WCI  13
OWATONNA       CLEAR     19  12  73 NW8       30.26S WCI   9
WASECA         CLEAR     19  14  79 N7        30.28S WCI  10
ALBERT LEA     CLEAR     19  16  86 N8        30.25S WCI   9
$$
MNZ078>079-086>088-094>096-172300-
   Southeast Minnesota

CITY           SKY/WX    TMP DP  RH WIND       PRES   REMARKS
ROCHESTER      PTCLDY    18  12  77 N9        30.25S WCI   7
RED WING       CLOUDY    19  10  68 N6        30.30R WCI  11
STANTON        CLEAR     20  12  71 N3        30.28S
DODGE CENTER   CLEAR     18  16  93 N8        30.24F WCI   7
WINONA         MOCLDY    21  14  73 N6        30.30S WCI  14
AUSTIN         CLEAR     19  14  79 N7        30.25R WCI  10
PRESTON        PTCLDY    19  13  79 NW6       30.25R WCI  10
$$
ABBREVIATIONS USED IN REMARKS
   TC - TEMPERATURES IN CELSIUS
  WCI - WIND CHILL INDEX
   HX - HEAT INDEX
  VSB - VISIBILITY
$$



USA.gov is the U.S. government's official web portal to all federal, state and local government web resources and services.